"2010-03-16 00:00:00",1765719,0.606,138.9,46.39,0.357,5.077,103.0426,7.066,8.16,39.76,0,110.4,13.33,7.84,100.9
"2010-03-16 00:00:30",1765720,0.545,167.7,22.17,0.255,5.379,103.0158,6.998,8.11,39.85,0,110.4,13.33,7.77,129.7
"2010-03-16 00:01:00",1765721,0.494,128.5,15.08,0.139,5.638,102.991,6.935,8.08,39.92,0,110.4,13.33,7.71,90.5
"2010-03-16 00:01:30",1765722,1.592,118.2,25.97,1.382,7.334,102.975,6.894,8.05,40.1,0,110.4,13.29,7.67,80.2
"2010-03-16 00:02:00",1765723,1.397,99.3,11.3,0.986,7.575,102.975,6.894,8.18,40.42,0,110.4,13.29,7.67,61.3
"2010-03-16 00:02:30",1765724,1.805,99.9,9.42,1.243,8.09,102.9817,6.911,8.1,40.46,0,110.4,13.29,7.69,61.9
"2010-03-16 00:03:00",1765725,2.272,124.1,5.602,1.296,8.01,103.0077,6.977,8.03,40.46,0,110.4,13.29,7.75,86.1
"2010-03-16 00:03:30",1765726,2.406,120.3,12.2,1.35,7.871,103.0088,6.98,8.2,40.49,0,110.4,13.29,7.76,82.3
"2010-03-16 00:04:00",1765727,2.754,133.3,14.89,1.261,8.36,103.0209,7.011,8.23,40.41,0,110.4,13.29,7.79,95.3
"2010-03-16 00:04:30",1765728,1.359,150,9.11,0.941,5.675,103.0417,7.064,8.05,40.17,0,110.4,13.29,7.84,112.0
"2010-03-16 00:05:00",1765729,1.141,150,5.204,0.199,4.973,103.0426,7.066,8.07,40.19,0,110.4,13.33,7.84,112.0
"2010-03-16 00:05:30",1765730,1.26,142,6.976,0.144,5.121,103.0651,7.124,8.11,40.04,0,110.4,13.33,7.90,104.0
"2010-03-16 00:06:00",1765731,0.893,151.1,14.72,0.138,5.515,103.0767,7.154,8.13,39.93,0,110.4,13.33,7.93,113.1
"2010-03-16 00:06:30",1765732,1.136,142.3,13.76,0.539,5.901,103.0781,7.157,8.17,39.87,0,110.4,13.29,7.93,104.3
"2010-03-16 00:07:00",1765733,2.716,125.9,8.65,1.291,8.78,103.1088,7.236,8.39,39.87,0,110.4,13.29,8.01,87.9
"2010-03-16 00:07:30",1765734,1.901,129.5,10.61,1.413,7.889,103.1154,7.253,8.27,39.26,0,110.4,13.29,8.03,91.5
"2010-03-16 00:08:00",1765735,2.312,123.1,10.42,1.296,8.73,103.114,7.249,8.5,39.25,0,110.4,13.29,8.03,85.1
"2010-03-16 00:08:30",1765736,1.737,121.4,6.138,1.329,7.757,103.1271,7.282,8.45,38.96,0,110.4,13.29,8.06,83.4
"2010-03-16 00:09:00",1765737,1.603,109.1,10.95,1.478,7.333,103.1511,7.344,8.36,38.64,0,110.4,13.29,8.12,71.1
"2010-03-16 00:09:30",1765738,0.08,115.9,19,0.105,4.791,103.1571,7.359,8.32,38.38,0,110.4,13.32,8.14,77.9
"2010-03-16 00:10:00",1765739,0.282,149.1,21.34,0.069,4.492,103.1597,7.366,8.36,38.39,0,110.4,13.32,8.14,111.1
"2010-03-16 00:10:30",1765740,0.648,132.3,21.59,0.231,4.626,103.1795,7.416,8.37,38.46,0,110.4,13.32,8.19,94.3
"2010-03-16 00:11:00",1765741,1.209,133,7.54,0.097,4.828,103.1942,7.454,8.4,38.18,0,110.4,13.32,8.23,95.0
"2010-03-16 00:11:30",1765742,1.473,145.2,8.52,0.235,5.335,103.1971,7.461,8.42,37.81,0,110.4,13.32,8.24,107.2
"2010-03-16 00:12:00",1765743,1.804,126.1,5.223,0.25,6.295,103.1797,7.417,8.53,37.96,0,110.4,13.33,8.19,88.1
"2010-03-16 00:12:30",1765744,3.245,131.5,8.31,1.276,8.61,103.1722,7.398,8.5,37.82,0,110.4,13.29,8.18,93.5
"2010-03-16 00:13:00",1765745,4.202,148.1,6.507,1.016,10.61,103.1748,7.404,8.67,38.24,0,110.4,13.29,8.18,110.1
"2010-03-16 00:13:30",1765746,3.515,149.1,8.38,1.058,10.53,103.1757,7.407,8.72,38.43,0,110.4,13.29,8.18,111.1
"2010-03-16 00:14:00",1765747,1.551,153.1,11.86,1.083,7.31,103.178,7.413,8.53,38.33,0,110.4,13.29,8.19,115.1
"2010-03-16 00:14:30",1765748,1.186,102.1,13.42,0.171,5.15,103.173,7.4,8.37,38.12,0,110.4,13.33,8.18,64.1
"2010-03-16 00:15:00",1765749,1.699,82.2,10.11,0.318,5.084,103.1693,7.39,8.36,38.27,0,110.4,13.33,8.17,44.2
"2010-03-16 00:15:30",1765750,1.332,88,6.94,0.366,5.366,103.1609,7.369,8.34,38.15,0,110.4,13.33,8.15,50.0
"2010-03-16 00:16:00",1765751,1.225,82,7.291,0.154,5.624,103.1448,7.328,8.34,38.01,0,110.4,13.33,8.11,44.0
"2010-03-16 00:16:30",1765752,1.12,63.95,8.29,0.14,5.9,103.1254,7.278,8.31,38.12,0,110.4,13.33,8.06,26.0
"2010-03-16 00:17:00",1765753,2.053,89.1,19.38,1.385,8.71,103.1262,7.28,8.45,38.45,0,110.4,13.3,8.06,51.1
"2010-03-16 00:17:30",1765754,3.62,110.9,8.62,0.639,11.45,103.1141,7.249,8.6,38.63,0,110.4,13.3,8.03,72.9
"2010-03-16 00:18:00",1765755,2.657,111.8,9.11,1.223,10.19,103.1113,7.242,8.56,38.45,0,110.4,13.3,8.02,73.8
"2010-03-16 00:18:30",1765756,1.97,106.6,9.06,1.386,7.658,103.1005,7.215,8.25,38.06,0,110.4,13.3,7.99,68.6
"2010-03-16 00:19:00",1765757,2.157,103.9,17.17,1.272,7.613,103.0774,7.155,8.36,38.32,0,110.4,13.3,7.93,65.9
"2010-03-16 00:19:30",1765758,1.377,109.5,8.23,0.681,5.19,103.0774,7.155,8.18,38.25,0,110.4,13.3,7.93,71.5
"2010-03-16 00:20:00",1765759,1.176,114.4,3.378,0.061,5.012,103.0774,7.155,8.18,38.26,0,110.4,13.33,7.93,76.4
"2010-03-16 00:20:30",1765760,1.32,120.1,2.772,0.054,5.355,103.0774,7.155,8.16,38.19,0,110.4,13.34,7.93,82.1
"2010-03-16 00:21:00",1765761,1.117,120.3,4.807,0.084,5.654,103.0774,7.155,8.16,38.32,0,110.3,13.34,7.93,82.3
"2010-03-16 00:21:30",1765762,1.832,114.8,6.43,1.11,7.088,103.0774,7.155,8.25,38.38,0,110.3,13.31,7.93,76.8
"2010-03-16 00:22:00",1765763,3.141,128,5.925,1.2,10.19,103.0774,7.155,8.42,38.56,0,110.3,13.31,7.93,90.0
"2010-03-16 00:22:30",1765764,3.382,125.8,8.37,1.11,10.37,103.0774,7.155,8.33,38.49,0,110.3,13.31,7.93,87.8
"2010-03-16 00:23:00",1765765,0.935,116.9,5.409,0.119,6.318,103.0774,7.155,8.28,38.4,0,110.3,13.34,7.93,78.9
"2010-03-16 00:23:30",1765766,1.203,103,9.72,0.593,6.232,103.0774,7.155,8.29,38.39,0,110.3,13.34,7.93,65.0
"2010-03-16 00:24:00",1765767,2.726,104.3,11.23,1.23,7.051,103.0774,7.155,8.2,38.18,0,110.3,13.31,7.93,66.3
"2010-03-16 00:24:30",1765768,1.582,96.1,5.535,0.14,5.362,103.0777,7.156,8.18,38.13,0,110.3,13.34,7.93,58.1
"2010-03-16 00:25:00",1765769,1.244,97,4.912,0.176,5.483,103.0684,7.132,8.18,38.23,0,110.3,13.34,7.91,59.0
"2010-03-16 00:25:30",1765770,0.974,95,2.843,0.218,5.934,103.0465,7.076,8.16,38.26,0,110.3,13.34,7.85,57.0
"2010-03-16 00:26:00",1765771,1.369,100.2,4.398,1.081,7.525,103.0281,7.029,8.24,38.57,0,110.3,13.31,7.81,62.2
"2010-03-16 00:26:30",1765772,2.944,114.9,10.28,0.933,10.48,103.0112,6.986,8.31,38.69,0,110.3,13.3,7.76,76.9
"2010-03-16 00:27:00",1765773,2.529,91.9,12.14,1.314,9.69,103.0032,6.966,8.16,38.72,0,110.3,13.3,7.74,53.9
"2010-03-16 00:27:30",1765774,0.1,91,47.72,0.485,7.129,103.0057,6.972,8.15,38.63,0,110.3,13.34,7.75,53.0
"2010-03-16 00:28:00",1765775,0.667,75.88,7.307,0.161,5.451,103.0009,6.96,7.991,38.53,0,110.3,13.34,7.74,37.9
"2010-03-16 00:28:30",1765776,0.368,89.8,4.926,0.144,5.493,103.0024,6.964,7.969,38.59,0,110.3,13.34,7.74,51.8
"2010-03-16 00:29:00",1765777,0.771,78.27,15.23,1.054,6.055,103.0044,6.969,7.967,38.66,0,110.3,13.31,7.75,40.3
"2010-03-16 00:29:30",1765778,1.105,46.68,18.16,1.277,7.272,102.9986,6.954,8.07,38.47,0,110.3,13.31,7.73,8.7
"2010-03-16 00:30:00",1765779,0.314,48.79,16.31,0.711,5.606,102.9798,6.906,7.92,38.27,0,110.3,13.31,7.68,10.8
"2010-03-16 00:30:30",1765780,0.307,27.22,8.58,0.067,5.094,102.977,6.899,7.916,38.49,0,110.3,13.34,7.67,349.2
"2010-03-16 00:31:00",1765781,0.478,41.1,8.15,0.105,4.922,102.9818,6.911,7.9,38.74,0,110.3,13.35,7.69,3.1
"2010-03-16 00:31:30",1765782,0.434,47.28,4.643,0.055,5.106,102.9866,6.923,7.904,38.83,0,110.3,13.35,7.70,9.3
"2010-03-16 00:32:00",1765783,1.241,51.5,10.39,1.251,7.333,102.9948,6.944,8.03,38.98,0,110.3,13.32,7.72,13.5
"2010-03-16 00:32:30",1765784,0.84,59.53,6.048,0.932,7.048,103.0043,6.969,8.06,39,0,110.3,13.32,7.74,21.5
"2010-03-16 00:33:00",1765785,2.149,79.34,13.76,1.142,10.42,103.0103,6.984,8.16,39.11,0,110.3,13.32,7.76,41.3
"2010-03-16 00:33:30",1765786,1.785,114.8,16.99,1.256,9.21,103.0108,6.985,8.17,39.22,0,110.3,13.32,7.76,76.8
"2010-03-16 00:34:00",1765787,0.249,119.6,7.779,0.094,5.68,103.0108,6.985,7.951,38.9,0,110.3,13.36,7.76,81.6
"2010-03-16 00:34:30",1765788,0.27,129.6,4.742,0.058,5,103.0108,6.985,7.948,38.7,0,110.3,13.35,7.76,91.6
"2010-03-16 00:35:00",1765789,0.354,166.4,8.58,0.133,5.058,103.0108,6.985,7.956,38.27,0,110.3,13.36,7.76,128.4
"2010-03-16 00:35:30",1765790,0.789,166.8,28.58,1.059,5.777,103.0038,6.967,7.962,38.2,0,110.3,13.32,7.74,128.8
"2010-03-16 00:36:00",1765791,1.201,115.5,7.436,1.244,7.462,102.9874,6.925,8.08,38.36,0,110.3,13.32,7.70,77.5
"2010-03-16 00:36:30",1765792,0.315,122.6,4.702,0.528,5.383,102.99,6.932,7.965,38.2,0,110.3,13.32,7.71,84.6
"2010-03-16 00:37:00",1765793,0.117,144.1,16.37,0.073,5.243,102.9863,6.923,7.951,38.21,0,110.3,13.36,7.70,106.1
"2010-03-16 00:37:30",1765794,0.275,142.8,8.8,0.12,5.11,102.9815,6.91,7.936,38.24,0,110.3,13.36,7.69,104.8
"2010-03-16 00:38:00",1765795,0.607,157.7,7.348,0.127,5.585,102.984,6.917,7.947,38.38,0,110.3,13.36,7.69,119.7
"2010-03-16 00:38:30",1765796,1.654,166.1,11.7,1.269,8.04,102.9866,6.923,8.05,38.67,0,110.3,13.32,7.70,128.1
"2010-03-16 00:39:00",1765797,1.397,166.4,9.67,1.244,7.826,102.9945,6.943,8.17,38.8,0,110.3,13.32,7.72,128.4
"2010-03-16 00:39:30",1765798,2.038,177.3,7.537,1.328,9.12,102.9987,6.954,8.07,38.64,0,110.2,13.32,7.73,139.3
"2010-03-16 00:40:00",1765799,1.32,173,11.08,0.991,7.247,102.9928,6.939,8.04,38.53,0,110.2,13.32,7.72,135.0
"2010-03-16 00:40:30",1765800,2.126,164.8,8.72,1.343,8.27,102.9908,6.934,8.14,38.55,0,110.2,13.32,7.71,126.8
"2010-03-16 00:41:00",1765801,1.921,161.8,5.963,1.324,7.408,102.9886,6.929,8.12,38.38,0,110.2,13.32,7.70,123.8
"2010-03-16 00:41:30",1765802,1.532,157,5.769,1.027,6.55,102.9913,6.935,8.13,38.17,0,110.2,13.32,7.71,119.0
"2010-03-16 00:42:00",1765803,1.034,156.6,3.533,0.07,5.12,102.9928,6.939,7.973,37.76,0,110.2,13.36,7.72,118.6
"2010-03-16 00:42:30",1765804,1.098,164.3,2.51,0.062,5.553,102.9903,6.933,7.982,37.67,0,110.2,13.36,7.71,126.3
"2010-03-16 00:43:00",1765805,2.3,171.5,7.307,1.337,7.697,102.9921,6.937,8.15,37.64,0,110.2,13.32,7.71,133.5
"2010-03-16 00:43:30",1765806,1.619,164.6,4.358,1.018,7.495,102.9961,6.948,8.12,37.58,0,110.2,13.32,7.72,126.6
"2010-03-16 00:44:00",1765807,2.252,172,7.452,1.28,8.87,103.0017,6.962,8.15,37.53,0,110.2,13.32,7.74,134.0
"2010-03-16 00:44:30",1765808,1.144,169.1,2.94,0.676,6.819,103.0078,6.977,8.05,37.2,0,110.2,13.32,7.75,131.1
"2010-03-16 00:45:00",1765809,1.659,173.9,7.156,1.204,8.35,103.0084,6.979,8.01,37.34,0,110.2,13.32,7.76,135.9
"2010-03-16 00:45:30",1765810,2.59,181.3,7.545,1.234,10.02,103.0014,6.961,8.14,37.76,0,110.2,13.32,7.74,143.3
"2010-03-16 00:46:00",1765811,0.996,164.4,5.331,0.14,6.15,102.9924,6.938,8.07,37.77,0,110.2,13.36,7.71,126.4
"2010-03-16 00:46:30",1765812,1.285,153.3,6.587,0.078,5.3,102.978,6.901,7.936,37.71,0,110.2,13.36,7.68,115.3
"2010-03-16 00:47:00",1765813,1.384,158,11.21,0.9,5.688,102.978,6.901,7.937,37.72,0,110.2,13.33,7.68,120.0
"2010-03-16 00:47:30",1765814,2.211,177.7,8.67,1.32,7.902,102.978,6.901,8.08,37.95,0,110.2,13.33,7.68,139.7
"2010-03-16 00:48:00",1765815,1.352,168.3,3.749,0.178,6.16,102.9732,6.889,7.926,37.83,0,110.2,13.37,7.67,130.3
"2010-03-16 00:48:30",1765816,2.133,177.1,9.5,1.077,7.787,102.949,6.827,8.07,37.91,0,110.2,13.33,7.60,139.1
"2010-03-16 00:49:00",1765817,2.566,175.3,8.59,1.324,8.43,102.9442,6.815,7.963,37.69,0,110.2,13.33,7.59,137.3
"2010-03-16 00:49:30",1765818,2.981,170.1,6.435,1.233,9.46,102.9442,6.815,8.08,37.74,0,110.2,13.33,7.59,132.1
"2010-03-16 00:50:00",1765819,3.071,179.7,7.552,1.315,9.64,102.9317,6.783,8.13,37.73,0,110.2,13.33,7.56,141.7
"2010-03-16 00:50:30",1765820,2.018,165,12.61,1.156,6.869,102.9103,6.728,7.868,37.47,0,110.2,13.33,7.50,127.0
"2010-03-16 00:51:00",1765821,2.504,157.3,3.782,1.309,7.437,102.9106,6.729,7.976,37.68,0,110.2,13.33,7.50,119.3
"2010-03-16 00:51:30",1765822,2.063,160.4,8.5,1.179,7.354,102.8982,6.698,7.94,37.7,0,110.2,13.34,7.47,122.4
"2010-03-16 00:52:00",1765823,1.235,164.3,5.628,0.065,5.943,102.8826,6.658,7.77,37.59,0,110.2,13.37,7.43,126.3
"2010-03-16 00:52:30",1765824,1.401,161.1,5.582,0.698,6.033,102.8919,6.681,7.764,37.66,0,110.2,13.34,7.46,123.1
"2010-03-16 00:53:00",1765825,1.823,178.3,12.35,1.007,8.13,102.8785,6.647,7.901,37.89,0,110.2,13.35,7.42,140.3
"2010-03-16 00:53:30",1765826,2.467,163.9,9.01,1.223,9.28,102.8696,6.624,7.856,38,0,110.2,13.35,7.40,125.9
"2010-03-16 00:54:00",1765827,2.638,165.1,6.208,1.302,9.68,102.8703,6.626,7.902,38.2,0,110.2,13.35,7.40,127.1
"2010-03-16 00:54:30",1765828,1.682,163.8,7.429,1.01,6.777,102.8456,6.563,7.743,38.21,0,110.2,13.35,7.34,125.8
"2010-03-16 00:55:00",1765829,1.703,153.7,7.467,1.1,6.702,102.8436,6.558,7.726,38.34,0,110.2,13.35,7.33,115.7
"2010-03-16 00:55:30",1765830,2.233,161.9,5.876,1.328,7.881,102.8433,6.557,7.687,38.4,0,110.2,13.35,7.33,123.9
"2010-03-16 00:56:00",1765831,1.124,157.9,3.904,0.084,5.666,102.8258,6.513,7.567,38.31,0,110.2,13.39,7.29,119.9
"2010-03-16 00:56:30",1765832,1.188,158.5,3.702,0.096,5.859,102.8103,6.473,7.547,38.39,0,110.2,13.39,7.25,120.5
"2010-03-16 00:57:00",1765833,1.445,162.1,7.674,0.977,7.451,102.8097,6.471,7.717,38.59,0,110.1,13.35,7.25,124.1
"2010-03-16 00:57:30",1765834,2.645,169.6,8.93,1.27,9.68,102.8055,6.461,7.629,38.56,0,110.1,13.35,7.24,131.6
"2010-03-16 00:58:00",1765835,2.095,158.2,7.774,1.291,9.44,102.7796,6.394,7.709,38.75,0,110.1,13.36,7.17,120.2
"2010-03-16 00:58:30",1765836,1.392,168.3,3.45,1.112,8.01,102.7759,6.385,7.471,38.57,0,110.1,13.35,7.16,130.3
"2010-03-16 00:59:00",1765837,1.564,178.4,8.14,1.219,8.83,102.7753,6.384,7.708,38.92,0,110.1,13.35,7.16,140.4
"2010-03-16 00:59:30",1765838,1.618,176.9,10.77,1.068,7.291,102.7584,6.34,7.581,38.85,0,110.1,13.35,7.11,138.9
"2010-03-16 01:00:00",1765839,1.864,165.6,10.32,1.305,7.499,102.742,6.298,7.464,38.82,0,110.1,13.35,7.07,127.6
"2010-03-16 01:00:30",1765840,0.583,158.9,5.812,0.085,5.538,102.7444,6.304,7.397,38.88,0,110.1,13.39,7.08,120.9
"2010-03-16 01:01:00",1765841,0.561,170.8,4.521,0.102,5.602,102.7381,6.288,7.382,39.07,0,110.1,13.39,7.06,132.8
"2010-03-16 01:01:30",1765842,0.421,159.8,6.296,0.059,6.03,102.7262,6.258,7.362,39.24,0,110.1,13.39,7.03,121.8
"2010-03-16 01:02:00",1765843,0.626,162.8,11,0.853,7.143,102.7328,6.275,7.465,39.48,0,110.1,13.36,7.05,124.8
"2010-03-16 01:02:30",1765844,1.961,185.7,12.28,1.201,10.73,102.7325,6.274,7.517,39.58,0,110.1,13.36,7.05,147.7
"2010-03-16 01:03:00",1765845,0.911,179.6,13.35,1.122,8.94,102.7091,6.214,7.375,39.52,0,110.1,13.36,6.99,141.6
"2010-03-16 01:03:30",1765846,0.067,174.9,4.946,0.035,6.566,102.7091,6.214,7.276,39.41,0,110.1,13.4,6.99,136.9
"2010-03-16 01:04:00",1765847,0.129,168.2,7.97,0.096,5.867,102.6927,6.172,7.251,39.36,0,110.1,13.4,6.95,130.2
"2010-03-16 01:04:30",1765848,1.251,170.6,10.32,1.282,7.454,102.6752,6.128,7.322,39.55,0,110.1,13.37,6.90,132.6
"2010-03-16 01:05:00",1765849,1.998,188.7,13.15,1.313,9.24,102.6752,6.128,7.45,39.8,0,110.1,13.38,6.90,150.7
"2010-03-16 01:05:30",1765850,1.149,171.1,9.06,0.936,6.695,102.6515,6.067,7.188,39.62,0,110.1,13.38,6.84,133.1
"2010-03-16 01:06:00",1765851,0.537,155.3,6.727,0.103,5.308,102.6414,6.041,7.147,39.7,0,110.1,13.41,6.81,117.3
"2010-03-16 01:06:30",1765852,0.604,149,5.68,0.068,5.397,102.6397,6.037,7.117,39.75,0,110,13.41,6.81,111.0
"2010-03-16 01:07:00",1765853,0.615,153.8,4.673,0.042,6.022,102.6146,5.973,7.101,39.84,0,110,13.41,6.75,115.8
"2010-03-16 01:07:30",1765854,1.612,157.9,5.255,1.254,8.28,102.6078,5.956,7.192,40.04,0,110,13.38,6.73,119.9
"2010-03-16 01:08:00",1765855,2.352,165.1,9.12,1.198,9.65,102.6084,5.957,7.224,40.15,0,110,13.38,6.73,127.1
"2010-03-16 01:08:30",1765856,1.39,158.6,7.863,1.256,8.45,102.5913,5.913,7.15,40.12,0,110,13.38,6.69,120.6
"2010-03-16 01:09:00",1765857,1.205,158.9,8.02,1.122,7.232,102.5867,5.902,6.995,40.05,0,110,13.38,6.67,120.9
"2010-03-16 01:09:30",1765858,1.124,161,5.289,1.008,6.821,102.5948,5.922,7.098,40.29,0,110,13.38,6.70,123.0
"2010-03-16 01:10:00",1765859,2.568,169.8,7.328,1.172,9.15,102.5785,5.881,7.051,40.46,0,110,13.39,6.65,131.8
"2010-03-16 01:10:30",1765860,0.857,163.3,4.513,0.772,6.757,102.5702,5.859,7.092,40.61,0,110,13.39,6.63,125.3
"2010-03-16 01:11:00",1765861,0.492,152.9,3.815,0.067,5.682,102.5734,5.868,6.909,40.49,0,110,13.43,6.64,114.9
"2010-03-16 01:11:30",1765862,0.596,151.4,2.287,0.05,5.745,102.5567,5.825,6.88,40.6,0,110,13.43,6.60,113.4
"2010-03-16 01:12:00",1765863,0.713,156.5,3.125,0.049,6.078,102.5406,5.784,6.854,40.73,0,110,13.43,6.56,118.5
"2010-03-16 01:12:30",1765864,1.485,159.4,4.839,1.163,7.67,102.5389,5.78,6.957,40.87,0,110,13.39,6.55,121.4
"2010-03-16 01:13:00",1765865,2.267,159.9,6.508,1.321,9.15,102.5104,5.707,7.081,41.06,0,110,13.39,6.48,121.9
"2010-03-16 01:13:30",1765866,2.411,168.3,6.751,1.293,8.85,102.5068,5.697,6.85,40.86,0,110,13.39,6.47,130.3
"2010-03-16 01:14:00",1765867,2.017,193.2,7.16,1.247,8.61,102.4983,5.676,6.92,40.99,0,110,13.39,6.45,155.2
"2010-03-16 01:14:30",1765868,0.906,182.9,4.694,0.071,6.259,102.4743,5.615,6.737,40.87,0,110,13.43,6.39,144.9
"2010-03-16 01:15:00",1765869,1.096,187.5,9.37,0.797,6.168,102.4729,5.611,6.762,41.03,0,110,13.4,6.38,149.5
"2010-03-16 01:15:30",1765870,1.889,180.4,10.94,1.33,8.32,102.4529,5.56,6.824,41.28,0,110,13.39,6.33,142.4
"2010-03-16 01:16:00",1765871,0.816,180.5,2.382,0.131,6.189,102.439,5.524,6.666,41.28,0,110,13.43,6.30,142.5
"2010-03-16 01:16:30",1765872,0.782,164.8,10.99,0.087,6.103,102.439,5.524,6.648,41.36,0,110,13.43,6.30,126.8
"2010-03-16 01:17:00",1765873,1.965,164.4,5.735,1.278,8.08,102.434,5.511,6.757,41.45,0,110,13.39,6.28,126.4
"2010-03-16 01:17:30",1765874,2.007,172,6.698,1.305,8.48,102.4126,5.457,6.67,41.38,0,110,13.4,6.23,134.0
"2010-03-16 01:18:00",1765875,1.898,169.2,5.258,1.239,9.13,102.419,5.473,6.797,41.52,0,110,13.4,6.24,131.2
"2010-03-16 01:18:30",1765876,2.092,158.1,8.04,1.265,8.38,102.422,5.481,6.688,41.49,0,110,13.4,6.25,120.1
"2010-03-16 01:19:00",1765877,0.898,154.1,1.624,0.042,5.769,102.4035,5.434,6.541,41.36,0,110,13.43,6.20,116.1
"2010-03-16 01:19:30",1765878,0.933,144.5,3.934,0.042,5.539,102.4045,5.436,6.528,41.4,0,110,13.43,6.21,106.5
"2010-03-16 01:20:00",1765879,2.251,141.9,6.354,1.297,8.19,102.406,5.44,6.595,41.5,0,110,13.4,6.21,103.9
"2010-03-16 01:20:30",1765880,1.54,150.9,8.76,1.094,7.617,102.3904,5.4,6.657,41.63,0,110,13.41,6.17,112.9
"2010-03-16 01:21:00",1765881,1.491,151.5,7.245,1.049,6.966,102.3721,5.353,6.461,41.51,0,110,13.41,6.12,113.5
"2010-03-16 01:21:30",1765882,2.192,148.9,6.101,1.326,8.31,102.3721,5.353,6.596,41.69,0,110,13.41,6.12,110.9
"2010-03-16 01:22:00",1765883,2.782,153.3,6.167,1.243,9.08,102.3676,5.342,6.515,41.68,0,110,13.41,6.11,115.3
"2010-03-16 01:22:30",1765884,2.778,157.4,6.872,1.263,9.73,102.3413,5.275,6.661,41.89,0,109.9,13.41,6.05,119.4
"2010-03-16 01:23:00",1765885,1.872,167.9,6.838,1.012,7.659,102.3382,5.267,6.524,41.89,0,109.9,13.41,6.04,129.9
"2010-03-16 01:23:30",1765886,1.197,167.6,6.197,0.088,5.949,102.3382,5.267,6.366,41.97,0,109.9,13.45,6.04,129.6
"2010-03-16 01:24:00",1765887,1.167,165.7,4.557,0.079,5.944,102.3328,5.253,6.351,42.02,0,109.9,13.45,6.02,127.7
"2010-03-16 01:24:30",1765888,1.715,163.9,5.159,1.112,7.48,102.3224,5.226,6.501,42.31,0,109.9,13.42,6.00,125.9
"2010-03-16 01:25:00",1765889,2.474,160.5,8.36,1.317,8.22,102.3049,5.182,6.352,42.16,0,109.9,13.42,5.95,122.5
"2010-03-16 01:25:30",1765890,2.286,167.1,5.622,1.301,8.69,102.3043,5.18,6.45,42.24,0,109.9,13.42,5.95,129.1
"2010-03-16 01:26:00",1765891,1.97,172.7,7.305,1.219,8.31,102.3043,5.18,6.407,42.22,0,109.9,13.42,5.95,134.7
"2010-03-16 01:26:30",1765892,2.994,182,5.288,1.172,9.6,102.297,5.162,6.483,42.36,0,109.9,13.42,5.93,144.0
"2010-03-16 01:27:00",1765893,2.114,180.8,7.889,1.181,8.57,102.2764,5.109,6.448,42.48,0,109.9,13.42,5.88,142.8
"2010-03-16 01:27:30",1765894,1.187,174.9,2.087,0.057,6.056,102.2788,5.115,6.244,42.41,0,109.9,13.46,5.89,136.9
"2010-03-16 01:28:00",1765895,1.184,171.5,3.992,0.079,5.863,102.286,5.134,6.244,42.49,0,109.9,13.46,5.90,133.5
"2010-03-16 01:28:30",1765896,1.228,163.6,3.51,0.055,6.016,102.2921,5.149,6.223,42.49,0,109.9,13.46,5.92,125.6
"2010-03-16 01:29:00",1765897,2.679,180.8,8.01,1.276,8.8,102.297,5.162,6.33,42.55,0,109.9,13.43,5.93,142.8
"2010-03-16 01:29:30",1765898,2.946,183.1,6.734,1.274,9.7,102.2951,5.157,6.413,42.82,0,109.9,13.43,5.93,145.1
"2010-03-16 01:30:00",1765899,2.374,184.2,6.514,1.231,8.27,102.2859,5.133,6.258,42.8,0,109.9,13.43,5.90,146.2
"2010-03-16 01:30:30",1765900,2.588,185.9,6.378,1.255,8.77,102.2717,5.097,6.384,42.98,0,109.9,13.43,5.87,147.9
"2010-03-16 01:31:00",1765901,1.644,177.5,5.432,0.956,7.246,102.2712,5.096,6.361,43.04,0,109.9,13.43,5.87,139.5
"2010-03-16 01:31:30",1765902,1.71,174.3,7.02,1.111,7.513,102.2712,5.096,6.241,42.96,0,109.9,13.43,5.87,136.3
"2010-03-16 01:32:00",1765903,1.241,173.5,2.166,0.065,5.99,102.2712,5.096,6.156,42.95,0,109.9,13.46,5.87,135.5
"2010-03-16 01:32:30",1765904,1.268,168.9,1.619,0.107,6.08,102.2712,5.096,6.155,42.95,0,109.9,13.46,5.87,130.9
"2010-03-16 01:33:00",1765905,2.084,177,7.185,1.207,8.04,102.2695,5.091,6.184,43.02,0,109.9,13.42,5.86,139.0
"2010-03-16 01:33:30",1765906,2.513,169.8,6.224,1.276,9.29,102.2571,5.06,6.298,43.15,0,109.9,13.43,5.83,131.8
"2010-03-16 01:34:00",1765907,2.648,171.9,6.847,1.329,9.38,102.2427,5.023,6.374,43,0,109.9,13.43,5.79,133.9
"2010-03-16 01:34:30",1765908,1.711,165.8,4.464,0.9,6.994,102.2376,5.01,6.248,42.78,0,109.9,13.43,5.78,127.8
"2010-03-16 01:35:00",1765909,2.556,172.3,6.264,1.291,8.62,102.2373,5.009,6.349,42.82,0,109.9,13.42,5.78,134.3
"2010-03-16 01:35:30",1765910,2.003,166.4,7.164,1.177,6.768,102.2373,5.009,6.129,42.61,0,109.9,13.43,5.78,128.4
"2010-03-16 01:36:00",1765911,1.145,161.2,1.878,0.075,5.842,102.2382,5.011,6.131,42.58,0,109.9,13.46,5.78,123.2
"2010-03-16 01:36:30",1765912,1.067,157.1,1.662,0.046,5.744,102.2402,5.017,6.099,42.54,0,109.9,13.47,5.79,119.1
"2010-03-16 01:37:00",1765913,1.573,161.1,6.371,1.064,7.059,102.2416,5.02,6.11,42.61,0,109.9,13.44,5.79,123.1
"2010-03-16 01:37:30",1765914,1.599,162.4,6.407,1.034,7.739,102.2419,5.021,6.187,42.71,0,109.9,13.44,5.79,124.4
"2010-03-16 01:38:00",1765915,2.942,172.6,5.245,1.157,10.4,102.2389,5.013,6.308,42.83,0,109.9,13.44,5.78,134.6
"2010-03-16 01:38:30",1765916,2.629,172.1,6.615,1.241,9.67,102.2328,4.998,6.289,42.81,0,109.9,13.44,5.77,134.1
"2010-03-16 01:39:00",1765917,1.02,165.7,1.603,0.059,6.163,102.2224,4.971,6.167,42.73,0,109.9,13.48,5.74,127.7
"2010-03-16 01:39:30",1765918,2.087,183.8,8.64,1.306,8.31,102.2256,4.979,6.18,42.75,0,109.9,13.44,5.75,145.8
"2010-03-16 01:40:00",1765919,1.528,182.2,6.785,1.105,7.353,102.2285,4.987,6.226,42.83,0,109.9,13.44,5.76,144.2
"2010-03-16 01:40:30",1765920,0.979,179.7,1.999,0.05,6.053,102.2314,4.994,6.041,42.71,0,109.9,13.48,5.76,141.7
"2010-03-16 01:41:00",1765921,0.906,179.3,1.701,0.049,6.395,102.232,4.996,6.04,42.7,0,109.9,13.48,5.77,141.3
"2010-03-16 01:41:30",1765922,2.03,186.8,9.16,1.274,8.44,102.2357,5.005,6.153,42.82,0,109.9,13.45,5.77,148.8
"2010-03-16 01:42:00",1765923,1.787,190.2,8.19,1.163,8.41,102.2375,5.01,6.186,42.86,0,109.9,13.45,5.78,152.2
"2010-03-16 01:42:30",1765924,1.706,181.6,7.582,1.25,7.675,102.2375,5.01,6.027,42.71,0,109.9,13.45,5.78,143.6
"2010-03-16 01:43:00",1765925,2.186,184.8,7.344,1.264,9.35,102.2361,5.006,6.274,42.99,0,109.9,13.45,5.78,146.8
"2010-03-16 01:43:30",1765926,0.831,173.8,5.801,0.638,6.37,102.229,4.988,6.085,42.81,0,109.9,13.45,5.76,135.8
"2010-03-16 01:44:00",1765927,0.734,165.3,2.016,0.026,5.868,102.2202,4.966,6.101,42.86,0,109.9,13.49,5.73,127.3
"2010-03-16 01:44:30",1765928,1.936,167,7.851,1.258,8.23,102.2067,4.931,6.082,42.87,0,109.9,13.45,5.70,129.0
"2010-03-16 01:45:00",1765929,0.707,157.1,1.386,0.031,5.872,102.2041,4.924,6.096,42.91,0,109.9,13.49,5.69,119.1
"2010-03-16 01:45:30",1765930,0.683,160.4,3.02,0.057,5.959,102.2041,4.924,6.001,42.84,0,109.9,13.49,5.69,122.4
"2010-03-16 01:46:00",1765931,0.975,154.9,4.394,0.795,6.748,102.2041,4.924,6.101,43,0,109.9,13.45,5.69,116.9
"2010-03-16 01:46:30",1765932,1.513,156.8,6.988,1.207,7.734,102.2041,4.924,6.048,43.01,0,109.9,13.45,5.69,118.8
"2010-03-16 01:47:00",1765933,1.716,163,8.58,1.264,9.23,102.2041,4.924,6.201,43.18,0,109.9,13.45,5.69,125.0
"2010-03-16 01:47:30",1765934,0.758,156.5,2.047,0.468,6.441,102.2041,4.924,6.075,43.02,0,109.9,13.46,5.69,118.5
"2010-03-16 01:48:00",1765935,1.472,158.8,6.074,1.177,7.483,102.1993,4.912,6.135,43.05,0,109.9,13.45,5.68,120.8
"2010-03-16 01:48:30",1765936,1.252,153.4,5.282,1.069,6.657,102.1841,4.873,6.033,42.93,0,109.9,13.45,5.64,115.4
"2010-03-16 01:49:00",1765937,0.889,151.8,3.225,0.647,5.93,102.1781,4.858,6.036,43.05,0,109.9,13.45,5.63,113.8